Regional Weather Roundup
Issued by NWS

Home | Current Version | Previous Version | Text Only | Print | Product List | Glossary Off
Versions: 1 2 3 4 5 6 7 8 9 10 11 12 13 14 15 16 17 18 19 20 21 22 23 24 25 26 27 28 29 30 31 32 33 34 35 36 37 38 39 40 41 42 43 44 45 46 47 48 49 50

000
ASUS44 KMEG 260800
RWRTN
TENNESSEE HOURLY STATE WEATHER ROUNDUP
NATIONAL WEATHER SERVICE MEMPHIS TN
200 AM CST FRI DEC 26 2014

TNZ002-004-019-021-049-052-054-088>092-260900-
WEST TENNESSEE

CITY           SKY/WX    TMP DP  RH WIND       PRES   REMARKS
MEMPHIS INTL   MOCLDY    43  35  73 S5        30.16R
NWS MEMPHIS      N/A     40 N/A N/A MISG        N/A
JACKSON        MOCLDY    41  34  76 S5        30.20R
DYERSBURG      PTCLDY    41  27  56 S5        30.19R
UNION CITY     CLEAR     36  34  93 S7        30.16R WCI  30
PARIS          CLEAR     34  32  93 S6        30.18R WCI  29
LEXINGTON      CLEAR     36  34  93 CALM      30.19R
SAVANNAH       CLEAR     39  36  87 SE5       30.21S
$$

TNZ008-025-027-028-033-062-065-066-260900-
NORTH MIDDLE TENNESSEE

CITY           SKY/WX    TMP DP  RH WIND       PRES   REMARKS
NASHVILLE      CLEAR     34  32  92 CALM      30.24R
CLARKSVILLE    CLEAR     33  31  92 SE6       30.20R WCI  28
COOKEVILLE     CLEAR     27  27 100 CALM      30.22S
CROSSVILLE     CLEAR     31  28  89 CALM      30.23R
$$

TNZ061-075-076-078-094-096-097-260900-
SOUTH MIDDLE TENNESSEE

CITY           SKY/WX    TMP DP  RH WIND       PRES   REMARKS
FAYETTEVILLE   CLEAR     34  30  86 MISG      30.24R
TULLAHOMA      CLEAR     28  27  93 CALM      30.24R
WINCHESTER     CLEAR     36  34  93 CALM      30.24S
SHELBYVILLE    CLEAR     30  30 100 CALM      30.25R
$$

TNZ017-018-042-046-047-260900-
NORTHEAST TENNESSEE

CITY           SKY/WX    TMP DP  RH WIND       PRES   REMARKS
TRI CITIES     CLEAR     27  26  96 CALM      30.27R
ELIZABETHTON   SUNNY     25  25 100 CALM      30.27R
$$

TNZ012-013-036-069-073-074-260900-
CENTRAL EAST TENNESSEE

CITY           SKY/WX    TMP DP  RH WIND       PRES   REMARKS
KNOXVILLE      NOT AVBL
OAK RIDGE      FOG       31  30  96 CALM      30.28R VSB 1/4
GATLINBURG     SUNNY     27  27 100 CALM      30.26S
$$

TNZ083-085-099-260900-
SOUTHEAST TENNESSEE

CITY           SKY/WX    TMP DP  RH WIND       PRES   REMARKS
CHATTANOOGA    PTCLDY    31  29  92 CALM      30.27R
$$

SKY/WX REPORTED AS FAIR MEANS FEW OR NO CLOUDS BELOW
12 THOUSAND FEET.




USA.gov is the U.S. government's official web portal to all federal, state and local government web resources and services.